Ogden, UT

9:49 PM MDT on March 23, 2017 (GMT -0600)
Ogden-Hinckley

Weather History for KOGD - August, 2014

Change the Weather History Date:

Sunday, August 24, 2014

  Actual Average Record
Temperature  
Mean Temperature 63 °F -  
Max Temperature 77 °F 88 °F 98 °F (1931)
Min Temperature 51 °F 55 °F 42 °F (1960)
Degree Days  
Heating Degree Days 2    
Growing Degree Days 13 (Base 50)    
Moisture  
Dew Point 42 °F    
Average Humidity 48    
Maximum Humidity 71    
Minimum Humidity 28    
Precipitation  
Precipitation 0.00 in - - ()
Sea Level Pressure  
Sea Level Pressure 29.91 in    
Wind  
Wind Speed 6 mph (SSE)    
Max Wind Speed 9 mph    
Max Gust Speed -    
Visibility 10 miles    
Events      
Averages and records for this station are not official NWS values.
T = Trace of Precipitation, MM = Missing Value Source: NWS Daily Summary

Daily Weather History Graph

Daily Weather History Graph

Search for Another Location

Airport or City:

Trip Planner

Search our weather history database for the weather conditions in past years. The results will help you decide how hot, cold, wet, or windy it might be!

Date:

Astronomy

Aug. 24, 2014 Rise Set
Actual Time 6:46 AM MDT 8:13 PM MDT
Civil Twilight 6:17 AM MDT 8:42 PM MDT
Nautical Twilight 5:42 AM MDT 9:16 PM MDT
Astronomical Twilight 5:06 AM MDT 9:53 PM MDT
Moon 6:00 AM MDT 7:33 PM MDT
Length of Visible Light 14h 24m
Length of Day
13h 26m
Waning Crescent, 1% of the Moon is Illuminated
Aug 24
Waning Crescent
Aug 25
New
Sep 2
First Quarter
Sep 8
Full
Sep 15
Last Quarter

Hourly Weather History & Observations

Time (MDT) Temp. Dew Point Humidity Pressure Visibility Wind Dir Wind Speed Gust Speed Precip Events Conditions
12:53 AM 55.0 °F 44.1 °F 67% 29.95 in 10.0 mi South 9.2 mph - N/A   Clear
1:53 AM 54.0 °F 43.0 °F 66% 29.94 in 10.0 mi South 5.8 mph - N/A   Clear
2:53 AM 53.1 °F 43.0 °F 69% 29.94 in 10.0 mi South 9.2 mph - N/A   Clear
3:53 AM 52.0 °F 43.0 °F 71% 29.94 in 10.0 mi South 5.8 mph - N/A   Clear
4:53 AM 52.0 °F 42.1 °F 69% 29.95 in 10.0 mi South 6.9 mph - N/A   Clear
5:53 AM 52.0 °F 42.1 °F 69% 29.94 in 10.0 mi South 8.1 mph - N/A   Clear
6:53 AM 51.1 °F 41.0 °F 68% 29.96 in 10.0 mi South 8.1 mph - N/A   Clear
7:53 AM 53.1 °F 42.1 °F 66% 29.96 in 10.0 mi SSE 6.9 mph - N/A   Clear
8:53 AM 60.1 °F 43.0 °F 53% 29.96 in 10.0 mi Calm Calm - N/A   Clear
9:53 AM 64.9 °F 43.0 °F 45% 29.96 in 10.0 mi ENE 3.5 mph - N/A   Clear
10:53 AM 66.9 °F 44.1 °F 44% 29.95 in 10.0 mi NNW 5.8 mph - N/A   Clear
11:53 AM 69.1 °F 44.1 °F 40% 29.94 in 10.0 mi Variable 3.5 mph - N/A   Clear
12:53 PM 72.0 °F 39.0 °F 30% 29.92 in 10.0 mi WNW 6.9 mph - N/A   Clear
1:53 PM 73.0 °F 39.0 °F 29% 29.91 in 10.0 mi Variable 3.5 mph - N/A   Clear
2:53 PM 73.9 °F 39.0 °F 28% 29.90 in 10.0 mi North 3.5 mph - N/A   Overcast
3:53 PM 75.0 °F 41.0 °F 29% 29.88 in 10.0 mi Calm Calm - N/A   Clear
4:53 PM 75.0 °F 41.0 °F 29% 29.87 in 10.0 mi WNW 3.5 mph - N/A   Clear
5:53 PM 75.0 °F 41.0 °F 29% 29.86 in 10.0 mi North 8.1 mph - N/A   Clear
6:53 PM 75.0 °F 41.0 °F 29% 29.84 in 10.0 mi North 4.6 mph - N/A   Clear
8:53 PM 69.1 °F 44.1 °F 40% 29.82 in 10.0 mi East 5.8 mph - N/A   Clear
9:53 PM 68.0 °F 44.1 °F 42% 29.82 in 10.0 mi Calm Calm - N/A   Clear
11:53 PM 66.9 °F 43.0 °F 42% 29.80 in 10.0 mi South 4.6 mph - N/A   Clear